User: anonymous   Login
Location: Unspecified
(0.0000°N, 0.0000°E)
Time: 04:12:32
(UTC+00:00)
Language:

TBA - TO BE ASSIGNED - Orbit

View from above orbital plane
View from above orbital plane
View from above satellite
View from above satellite

Ground track
Ground track

The orbit is defined by the following mean orbital elements,

1 67931U          26145.44522106 +.00000000 +00000-0 +24159-3 0 00005
2 67931  43.0017 171.5358 0001341 268.5577  91.5121 15.27585091    04
Epoch (UTC): 25 May 2026 10:41:07
Eccentricity: 0.0001341
inclination: 43.0017°
perigee height: 482 km
apogee height: 484 km
right ascension of ascending node: 171.5358°
argument of perigee: 268.5577°
revolutions per day: 15.27585091
mean anomaly at epoch: 91.5121°

The dashed part of the orbit path shows where the satellite is in the earth's shadow,  

DLR